User: anonymous   Login
Location: Unspecified
(0.0000°N, 0.0000°E)
Time: 18:43:04
(UTC+00:00)
Language:

OBJECT H - Orbit

View from above orbital plane
View from above orbital plane
View from above satellite
View from above satellite

Ground track
Ground track

The orbit data is extracted from the following two-line orbital elements,

1 43187U 18014H   18351.29580866  .00000717  00000-0  68086-4 0  9996
2 43187  97.7175 257.3018 0009423 257.7295 102.2872 14.96552588 47705
Epoch (UTC): 17 December 2018 07:05:57
Eccentricity: 0.0009423
inclination: 97.7175°
perigee height: 571 km
apogee height: 584 km
right ascension of ascending node: 257.3018°
argument of perigee: 257.7295°
revolutions per day: 14.96552588
mean anomaly at epoch: 102.2872°
orbit number at epoch: 4770

The dashed part of the orbit path shows where the satellite is in the earth's shadow,  

DLR